Time,TemperatureF,DewpointF,PressureIn,WindDirection,WindDirectionDegrees,WindSpeedMPH,WindSpeedGustMPH,Humidity,HourlyPrecipIn,Conditions,Clouds,dailyrainin,SoftwareType,DateUTC
2013-03-12 00:00:00,58.7,54.2,29.88,SE,137,5.0,7.0,85,0.00,,CLR,0.00,VWS V14.01,2013-03-12 04:00:00,
2013-03-12 00:05:00,58.4,54.2,29.88,SE,144,7.0,11.0,86,0.01,,OVC110,0.01,VWS V14.01,2013-03-12 04:05:00,
2013-03-12 00:10:00,58.1,54.3,29.88,South,178,2.0,11.0,87,0.01,,OVC110,0.01,VWS V14.01,2013-03-12 04:10:00,
2013-03-12 00:15:00,58.0,54.2,29.88,SSE,157,3.0,11.0,87,0.01,,OVC110,0.01,VWS V14.01,2013-03-12 04:15:00,
2013-03-12 00:20:00,57.8,54.3,29.87,SSE,148,7.0,11.0,88,0.01,,OVC110,0.01,VWS V14.01,2013-03-12 04:20:00,
2013-03-12 00:25:00,57.7,54.2,29.87,SE,139,5.0,11.0,88,0.01,,OVC110,0.01,VWS V14.01,2013-03-12 04:25:00,
2013-03-12 00:30:00,57.7,54.2,29.87,South,171,8.0,13.0,88,0.01,,OVC110,0.01,VWS V14.01,2013-03-12 04:30:00,
2013-03-12 00:35:00,57.6,54.4,29.86,SSE,167,2.0,13.0,89,0.01,,OVC110,0.01,VWS V14.01,2013-03-12 04:35:00,
2013-03-12 00:40:00,57.5,54.3,29.86,SE,134,2.0,13.0,89,0.01,,OVC110,0.01,VWS V14.01,2013-03-12 04:40:00,
2013-03-12 00:45:00,57.4,54.5,29.86,SE,146,5.0,13.0,90,0.01,,OVC110,0.01,VWS V14.01,2013-03-12 04:45:00,
2013-03-12 00:50:00,57.4,54.5,29.86,ENE,57,2.0,13.0,90,0.01,,OVC110,0.01,VWS V14.01,2013-03-12 04:50:00,
2013-03-12 00:55:00,57.3,54.4,29.85,South,178,7.0,13.0,90,0.02,,OVC110,0.02,VWS V14.01,2013-03-12 04:55:00,
2013-03-12 01:00:00,57.3,54.7,29.85,SSE,150,4.0,7.0,91,0.02,,OVC110,0.02,VWS V14.01,2013-03-12 05:00:00,
2013-03-12 01:05:00,57.1,54.5,29.85,SSE,160,4.0,9.0,91,0.03,,-RA,0.03,VWS V14.01,2013-03-12 05:05:00,
2013-03-12 01:10:00,57.0,54.7,29.85,SE,129,4.0,10.0,92,0.03,,-RA,0.03,VWS V14.01,2013-03-12 05:10:00,
2013-03-12 01:15:00,56.9,54.6,29.85,SSE,167,4.0,10.0,92,0.03,,-RA,0.03,VWS V14.01,2013-03-12 05:15:00,
2013-03-12 01:20:00,56.8,54.5,29.85,SSE,167,5.0,10.0,92,0.03,,-RA,0.03,VWS V14.01,2013-03-12 05:20:00,
2013-03-12 01:25:00,56.7,54.7,29.85,SSE,162,1.0,10.0,93,0.03,,-RA,0.03,VWS V14.01,2013-03-12 05:25:00,
2013-03-12 01:30:00,56.6,54.6,29.85,South,169,3.0,4.0,93,0.02,,-RA,0.03,VWS V14.01,2013-03-12 05:30:00,
2013-03-12 01:35:00,56.5,54.8,29.85,SE,126,4.0,9.0,94,0.03,,-RA,0.04,VWS V14.01,2013-03-12 05:35:00,
2013-03-12 01:40:00,56.5,54.8,29.84,SSE,162,1.0,9.0,94,0.03,,-RA,0.04,VWS V14.01,2013-03-12 05:40:00,
2013-03-12 01:45:00,56.4,54.7,29.84,South,182,2.0,9.0,94,0.03,,-RA,0.04,VWS V14.01,2013-03-12 05:45:00,
2013-03-12 01:50:00,56.5,54.8,29.83,SSE,147,0.0,9.0,94,0.03,,-RA,0.04,VWS V14.01,2013-03-12 05:50:00,
2013-03-12 01:55:00,56.4,54.7,29.83,SE,146,6.0,9.0,94,0.04,,-RA,0.05,VWS V14.01,2013-03-12 05:55:00,
2013-03-12 02:00:00,56.4,54.7,29.83,SSE,148,3.0,7.0,94,0.03,,-RA,0.05,VWS V14.01,2013-03-12 06:00:00,
2013-03-12 02:05:00,56.3,54.9,29.83,SSE,159,5.0,7.0,95,0.03,,-RA,0.05,VWS V14.01,2013-03-12 06:05:00,
2013-03-12 02:10:00,56.3,54.9,29.83,SE,137,0.0,9.0,95,0.04,,-RA,0.06,VWS V14.01,2013-03-12 06:10:00,
2013-03-12 02:15:00,56.3,54.9,29.83,SE,142,6.0,9.0,95,0.05,,-RA,0.07,VWS V14.01,2013-03-12 06:15:00,
2013-03-12 02:20:00,56.3,54.9,29.84,SE,146,3.0,9.0,95,0.05,,-RA,0.07,VWS V14.01,2013-03-12 06:20:00,
2013-03-12 02:25:00,56.3,54.9,29.83,SSE,150,2.0,9.0,95,0.05,,-RA,0.07,VWS V14.01,2013-03-12 06:25:00,
2013-03-12 02:30:00,56.2,54.8,29.83,East,99,2.0,2.0,95,0.05,,-RA,0.08,VWS V14.01,2013-03-12 06:30:00,
2013-03-12 02:35:00,56.2,54.8,29.82,SSE,155,4.0,9.0,95,0.06,,-RA,0.09,VWS V14.01,2013-03-12 06:35:00,
2013-03-12 02:40:00,56.3,54.9,29.82,SE,145,4.0,9.0,95,0.06,,-RA,0.09,VWS V14.01,2013-03-12 06:40:00,
2013-03-12 02:45:00,56.3,54.9,29.82,SSE,162,3.0,11.0,95,0.07,,-RA,0.10,VWS V14.01,2013-03-12 06:45:00,
2013-03-12 02:50:00,56.3,55.2,29.81,ESE,119,8.0,11.0,96,0.08,,-RA,0.11,VWS V14.01,2013-03-12 06:50:00,
2013-03-12 02:55:00,56.3,54.9,29.81,SSE,159,5.0,11.0,95,0.08,,-RA,0.11,VWS V14.01,2013-03-12 06:55:00,
2013-03-12 03:00:00,56.3,55.2,29.80,SE,128,2.0,7.0,96,0.09,,-RA,0.14,VWS V14.01,2013-03-12 07:00:00,
2013-03-12 03:05:00,56.3,55.2,29.80,SE,124,4.0,11.0,96,0.10,,-RA,0.15,VWS V14.01,2013-03-12 07:05:00,
2013-03-12 03:10:00,56.3,55.2,29.80,SSE,163,0.0,11.0,96,0.12,,-RA,0.17,VWS V14.01,2013-03-12 07:10:00,
2013-03-12 03:15:00,56.2,55.1,29.80,SSE,156,4.0,11.0,96,0.14,,-RA,0.19,VWS V14.01,2013-03-12 07:15:00,
2013-03-12 03:20:00,56.2,55.1,29.80,SSW,199,4.0,11.0,96,0.16,,-RA,0.21,VWS V14.01,2013-03-12 07:20:00,
2013-03-12 03:25:00,56.1,55.0,29.80,SSW,195,0.0,11.0,96,0.18,,-RA,0.23,VWS V14.01,2013-03-12 07:25:00,
2013-03-12 03:30:00,56.1,55.0,29.80,South,180,4.0,5.0,96,0.17,,-RA,0.25,VWS V14.01,2013-03-12 07:30:00,
2013-03-12 03:35:00,56.1,55.3,29.79,SE,135,3.0,10.0,97,0.19,,-RA,0.27,VWS V14.01,2013-03-12 07:35:00,
2013-03-12 03:40:00,56.1,55.3,29.79,South,175,3.0,11.0,97,0.19,,-RA,0.27,VWS V14.01,2013-03-12 07:40:00,
2013-03-12 03:45:00,56.2,55.4,29.78,SE,129,6.0,11.0,97,0.21,,-RA,0.29,VWS V14.01,2013-03-12 07:45:00,
2013-03-12 03:50:00,56.2,55.4,29.78,SSE,158,3.0,13.0,97,0.21,,-RA,0.29,VWS V14.01,2013-03-12 07:50:00,
2013-03-12 03:55:00,56.3,55.5,29.78,SSE,150,2.0,13.0,97,0.22,,-RA,0.30,VWS V14.01,2013-03-12 07:55:00,
2013-03-12 04:00:00,56.3,55.5,29.77,SE,140,10.0,11.0,97,0.17,,-RA,0.31,VWS V14.01,2013-03-12 08:00:00,
2013-03-12 04:05:00,56.4,55.6,29.77,ESE,117,7.0,11.0,97,0.17,,-RA,0.31,VWS V14.01,2013-03-12 08:05:00,
2013-03-12 04:10:00,56.4,55.6,29.77,SSE,149,5.0,11.0,97,0.18,,-RA,0.32,VWS V14.01,2013-03-12 08:10:00,
2013-03-12 04:15:00,56.5,55.7,29.76,SSE,158,6.0,14.0,97,0.19,,-RA,0.33,VWS V14.01,2013-03-12 08:15:00,
2013-03-12 04:20:00,56.5,55.7,29.76,SSE,163,5.0,14.0,97,0.19,,-RA,0.33,VWS V14.01,2013-03-12 08:20:00,
2013-03-12 04:25:00,56.4,55.6,29.76,SSE,158,6.0,14.0,97,0.20,,-RA,0.34,VWS V14.01,2013-03-12 08:25:00,
2013-03-12 04:30:00,56.5,55.7,29.75,SE,126,5.0,6.0,97,0.10,,-RA,0.35,VWS V14.01,2013-03-12 08:30:00,
2013-03-12 04:35:00,56.5,55.7,29.75,SSE,161,7.0,11.0,97,0.10,,-RA,0.35,VWS V14.01,2013-03-12 08:35:00,
2013-03-12 04:40:00,56.6,55.8,29.75,SSE,151,2.0,11.0,97,0.11,,-RA,0.36,VWS V14.01,2013-03-12 08:40:00,
2013-03-12 04:46:00,56.6,55.8,29.75,SSE,160,6.0,15.0,97,0.12,,-RA,0.37,VWS V14.01,2013-03-12 08:46:00,
2013-03-12 04:50:00,56.7,55.9,29.74,SSE,161,3.0,15.0,97,0.12,,-RA,0.37,VWS V14.01,2013-03-12 08:50:00,
2013-03-12 04:56:00,56.8,56.0,29.73,SSE,154,3.0,15.0,97,0.12,,-RA,0.37,VWS V14.01,2013-03-12 08:56:00,
2013-03-12 05:00:00,56.9,56.1,29.74,SSE,159,6.0,15.0,97,0.12,,OVC036,0.37,VWS V14.01,2013-03-12 09:00:00,
2013-03-12 05:01:00,56.9,56.1,29.73,SSE,167,4.0,13.0,97,0.06,,-RA,0.37,VWS V14.01,2013-03-12 09:01:00,
2013-03-12 05:06:00,56.9,56.1,29.73,SE,127,12.0,13.0,97,0.06,,-RA,0.37,VWS V14.01,2013-03-12 09:06:00,
2013-03-12 05:11:00,57.1,56.3,29.73,SE,136,8.0,13.0,97,0.07,,-RA,0.38,VWS V14.01,2013-03-12 09:11:00,
2013-03-12 05:16:00,57.1,56.3,29.72,SE,142,3.0,13.0,97,0.07,,-RA,0.38,VWS V14.01,2013-03-12 09:16:00,
2013-03-12 05:21:00,57.3,56.5,29.72,SSE,148,14.0,15.0,97,0.07,,-RA,0.38,VWS V14.01,2013-03-12 09:21:00,
2013-03-12 05:26:00,57.5,56.7,29.72,SE,140,9.0,15.0,97,0.07,,-RA,0.38,VWS V14.01,2013-03-12 09:26:00,
2013-03-12 05:30:00,57.6,56.8,29.72,SSE,163,5.0,15.0,97,0.07,,OVC085,0.38,VWS V14.01,2013-03-12 09:30:00,
2013-03-12 05:31:00,57.6,56.8,29.72,SE,136,3.0,11.0,97,0.03,,-RA,0.38,VWS V14.01,2013-03-12 09:31:00,
2013-03-12 05:36:00,57.7,56.6,29.72,SE,140,8.0,15.0,96,0.03,,-RA,0.38,VWS V14.01,2013-03-12 09:36:00,
2013-03-12 05:41:00,57.8,56.7,29.72,SSE,165,7.0,19.0,96,0.03,,-RA,0.38,VWS V14.01,2013-03-12 09:41:00,
2013-03-12 05:46:00,58.0,56.9,29.72,South,170,5.0,19.0,96,0.03,,-RA,0.38,VWS V14.01,2013-03-12 09:46:00,
2013-03-12 05:51:00,58.0,56.9,29.72,SSE,148,9.0,19.0,96,0.03,,-RA,0.38,VWS V14.01,2013-03-12 09:51:00,
2013-03-12 05:56:00,58.1,57.0,29.71,SSE,165,5.0,19.0,96,0.03,,-RA,0.38,VWS V14.01,2013-03-12 09:56:00,
2013-03-12 06:00:00,58.1,57.0,29.71,SSE,165,7.0,19.0,96,0.04,,OVC036,0.39,VWS V14.01,2013-03-12 10:00:00,
2013-03-12 06:01:00,58.2,57.1,29.71,South,171,11.0,12.0,96,0.02,,-RA,0.39,VWS V14.01,2013-03-12 10:01:00,
2013-03-12 06:06:00,58.2,57.4,29.71,SSE,161,2.0,14.0,97,0.03,,-RA,0.40,VWS V14.01,2013-03-12 10:06:00,
2013-03-12 06:11:00,58.2,57.4,29.71,South,175,11.0,15.0,97,0.06,,-RA,0.43,VWS V14.01,2013-03-12 10:11:00,
2013-03-12 06:16:00,58.2,57.4,29.71,South,188,5.0,15.0,97,0.11,,-RA,0.48,VWS V14.01,2013-03-12 10:16:00,
2013-03-12 06:21:00,58.2,57.4,29.71,South,180,3.0,15.0,97,0.14,,-RA,0.51,VWS V14.01,2013-03-12 10:21:00,
2013-03-12 06:26:00,58.2,57.4,29.71,SSE,166,5.0,15.0,97,0.17,,-RA,0.54,VWS V14.01,2013-03-12 10:26:00,
2013-03-12 06:30:00,58.2,57.4,29.70,South,182,2.0,15.0,97,0.17,,OVC085,0.54,VWS V14.01,2013-03-12 10:30:00,
2013-03-12 06:31:00,58.2,57.4,29.70,South,169,7.0,9.0,97,0.17,,-RA,0.55,VWS V14.01,2013-03-12 10:31:00,
2013-03-12 06:36:00,58.2,57.4,29.70,SSW,205,7.0,11.0,97,0.18,,-RA,0.56,VWS V14.01,2013-03-12 10:36:00,
2013-03-12 06:41:00,58.3,57.5,29.70,SSE,161,6.0,12.0,97,0.19,,-RA,0.57,VWS V14.01,2013-03-12 10:41:00,
2013-03-12 06:46:00,58.4,57.6,29.70,SSE,159,7.0,12.0,97,0.20,,-RA,0.58,VWS V14.01,2013-03-12 10:46:00,
2013-03-12 06:51:00,58.4,57.6,29.71,SSW,198,5.0,12.0,97,0.21,,-RA,0.59,VWS V14.01,2013-03-12 10:51:00,
2013-03-12 06:56:00,58.4,57.6,29.71,SSW,207,4.0,13.0,97,0.23,,-RA,0.61,VWS V14.01,2013-03-12 10:56:00,
2013-03-12 07:00:00,58.4,57.6,29.71,SW,215,8.0,13.0,97,0.24,,OVC036,0.62,VWS V14.01,2013-03-12 11:00:00,
2013-03-12 07:01:00,58.4,57.6,29.71,South,191,9.0,12.0,97,0.24,,-RA,0.63,VWS V14.01,2013-03-12 11:01:00,
2013-03-12 07:07:00,58.5,57.7,29.71,SSW,200,7.0,12.0,97,0.26,,-RA,0.65,VWS V14.01,2013-03-12 11:07:00,
2013-03-12 07:12:00,58.5,57.7,29.71,South,169,10.0,12.0,97,0.28,,-RA,0.67,VWS V14.01,2013-03-12 11:12:00,
2013-03-12 07:17:00,58.5,57.7,29.71,SSE,148,5.0,12.0,97,0.28,,-RA,0.67,VWS V14.01,2013-03-12 11:17:00,
2013-03-12 07:22:00,58.5,57.7,29.71,SSW,207,7.0,12.0,97,0.28,,-RA,0.67,VWS V14.01,2013-03-12 11:22:00,
2013-03-12 07:27:00,58.5,57.7,29.71,South,184,8.0,16.0,97,0.29,,-RA,0.68,VWS V14.01,2013-03-12 11:27:00,
2013-03-12 07:30:00,58.5,57.7,29.70,SSE,166,8.0,16.0,97,0.29,,OVC085,0.68,VWS V14.01,2013-03-12 11:30:00,
2013-03-12 07:32:00,58.5,57.7,29.70,SSE,167,1.0,11.0,97,0.14,,-RA,0.68,VWS V14.01,2013-03-12 11:32:00,
2013-03-12 07:37:00,58.5,57.7,29.71,South,180,3.0,12.0,97,0.14,,-RA,0.68,VWS V14.01,2013-03-12 11:37:00,
2013-03-12 07:42:00,58.6,57.8,29.70,SSW,200,9.0,12.0,97,0.14,,-RA,0.68,VWS V14.01,2013-03-12 11:42:00,
2013-03-12 07:47:00,58.6,57.8,29.71,SSE,158,9.0,16.0,97,0.14,,-RA,0.68,VWS V14.01,2013-03-12 11:47:00,
2013-03-12 07:52:00,58.6,57.8,29.71,South,179,14.0,16.0,97,0.14,,-RA,0.68,VWS V14.01,2013-03-12 11:52:00,
2013-03-12 07:57:00,58.6,57.8,29.70,SSW,204,7.0,16.0,97,0.14,,-RA,0.68,VWS V14.01,2013-03-12 11:57:00,
2013-03-12 08:00:00,58.6,57.8,29.70,SSW,199,7.0,16.0,97,0.14,,OVC085,0.68,VWS V14.01,2013-03-12 12:00:00,
2013-03-12 08:02:00,58.6,57.8,29.70,SSE,157,12.0,12.0,97,0.06,,-RA,0.68,VWS V14.01,2013-03-12 12:02:00,
2013-03-12 08:07:00,58.7,57.8,29.70,SW,218,3.0,12.0,97,0.06,,-RA,0.68,VWS V14.01,2013-03-12 12:07:00,
2013-03-12 08:12:00,58.7,57.8,29.71,South,177,8.0,14.0,97,0.06,,-RA,0.68,VWS V14.01,2013-03-12 12:12:00,
2013-03-12 08:17:00,58.7,57.8,29.71,WSW,255,2.0,14.0,97,0.06,,-RA,0.68,VWS V14.01,2013-03-12 12:17:00,
2013-03-12 08:22:00,58.8,58.0,29.71,South,173,12.0,16.0,97,0.06,,-RA,0.68,VWS V14.01,2013-03-12 12:22:00,
2013-03-12 08:27:00,58.8,58.0,29.71,SW,223,10.0,16.0,97,0.06,,-RA,0.68,VWS V14.01,2013-03-12 12:27:00,
2013-03-12 08:30:00,58.9,58.0,29.71,SW,214,8.0,16.0,97,0.06,,OVC085,0.68,VWS V14.01,2013-03-12 12:30:00,
2013-03-12 08:32:00,58.9,58.0,29.71,SSW,205,8.0,14.0,97,0.00,,-RA,0.68,VWS V14.01,2013-03-12 12:32:00,
2013-03-12 08:37:00,58.9,58.0,29.72,SW,225,9.0,14.0,97,0.01,,-RA,0.69,VWS V14.01,2013-03-12 12:37:00,
2013-03-12 08:42:00,58.9,58.0,29.72,SSW,209,4.0,14.0,97,0.01,,-RA,0.69,VWS V14.01,2013-03-12 12:42:00,
2013-03-12 08:47:00,58.9,58.0,29.72,SW,229,10.0,14.0,97,0.03,,-RA,0.71,VWS V14.01,2013-03-12 12:47:00,
2013-03-12 08:52:00,58.8,58.0,29.72,SW,228,9.0,14.0,97,0.04,,-RA,0.72,VWS V14.01,2013-03-12 12:52:00,
2013-03-12 08:57:00,58.9,58.0,29.73,WSW,240,6.0,14.0,97,0.04,,-RA,0.72,VWS V14.01,2013-03-12 12:57:00,
2013-03-12 09:00:00,58.8,58.0,29.73,SW,234,7.0,14.0,97,0.04,,OVC085,0.72,VWS V14.01,2013-03-12 13:00:00,
2013-03-12 09:02:00,58.8,58.0,29.73,SW,230,5.0,7.0,97,0.04,,OVC038,0.72,VWS V14.01,2013-03-12 13:02:00,
2013-03-12 09:07:00,58.7,57.8,29.74,WSW,238,5.0,7.0,97,0.04,,OVC038,0.72,VWS V14.01,2013-03-12 13:07:00,
2013-03-12 09:12:00,58.8,58.0,29.74,WSW,246,5.0,7.0,97,0.04,,OVC038,0.72,VWS V14.01,2013-03-12 13:12:00,
2013-03-12 09:17:00,58.0,55.7,29.74,WNW,288,3.0,10.0,92,0.04,,OVC038,0.72,VWS V14.01,2013-03-12 13:17:00,
2013-03-12 09:22:00,56.9,53.7,29.75,NW,307,5.0,10.0,89,0.04,,OVC038,0.72,VWS V14.01,2013-03-12 13:22:00,
2013-03-12 09:27:00,56.1,52.9,29.75,NW,323,3.0,10.0,89,0.04,,OVC038,0.72,VWS V14.01,2013-03-12 13:27:00,
2013-03-12 09:30:00,55.9,52.7,29.75,NW,312,3.0,10.0,89,0.04,,OVC085,0.72,VWS V14.01,2013-03-12 13:30:00,
2013-03-12 09:32:00,55.7,52.8,29.75,WNW,288,4.0,9.0,90,0.04,,OVC038,0.72,VWS V14.01,2013-03-12 13:32:00,
2013-03-12 09:37:00,55.3,52.1,29.76,WNW,294,4.0,11.0,89,0.04,,OVC038,0.72,VWS V14.01,2013-03-12 13:37:00,
2013-03-12 09:42:00,55.2,52.0,29.76,WNW,298,4.0,11.0,89,0.04,,OVC038,0.72,VWS V14.01,2013-03-12 13:42:00,
2013-03-12 09:47:00,55.1,51.9,29.76,WNW,296,2.0,11.0,89,0.04,,OVC038,0.72,VWS V14.01,2013-03-12 13:47:00,
2013-03-12 09:52:00,55.2,52.0,29.76,NW,320,5.0,11.0,89,0.04,,OVC038,0.72,VWS V14.01,2013-03-12 13:52:00,
2013-03-12 09:57:00,55.2,51.4,29.75,WNW,292,3.0,11.0,87,0.04,,OVC038,0.72,VWS V14.01,2013-03-12 13:57:00,
2013-03-12 10:00:00,55.1,51.0,29.76,WNW,290,5.0,11.0,86,0.04,,OVC085,0.72,VWS V14.01,2013-03-12 14:00:00,
2013-03-12 10:02:00,55.1,51.0,29.76,WNW,298,2.0,5.0,86,0.00,,OVC036,0.72,VWS V14.01,2013-03-12 14:02:00,
2013-03-12 10:07:00,55.4,50.0,29.77,WNW,290,8.0,11.0,82,0.00,,OVC036,0.72,VWS V14.01,2013-03-12 14:07:00,
2013-03-12 10:12:00,55.4,49.7,29.77,NNW,346,3.0,11.0,81,0.00,,OVC036,0.72,VWS V14.01,2013-03-12 14:12:00,
2013-03-12 10:17:00,55.2,49.8,29.77,NW,316,5.0,11.0,82,0.00,,OVC036,0.72,VWS V14.01,2013-03-12 14:17:00,
2013-03-12 10:22:00,55.1,49.7,29.77,NW,323,4.0,11.0,82,0.00,,OVC036,0.72,VWS V14.01,2013-03-12 14:22:00,
2013-03-12 10:27:00,55.1,49.7,29.77,NW,309,8.0,11.0,82,0.00,,OVC036,0.72,VWS V14.01,2013-03-12 14:27:00,
2013-03-12 10:30:00,55.1,49.4,29.77,NW,306,4.0,11.0,81,0.00,,OVC085,0.72,VWS V14.01,2013-03-12 14:30:00,
2013-03-12 10:32:00,55.0,49.3,29.77,WNW,284,11.0,11.0,81,0.00,,OVC036,0.72,VWS V14.01,2013-03-12 14:32:00,
2013-03-12 10:37:00,54.9,48.9,29.77,NW,309,4.0,11.0,80,0.00,,OVC036,0.72,VWS V14.01,2013-03-12 14:37:00,
2013-03-12 10:42:00,54.9,48.9,29.78,WNW,300,2.0,11.0,80,0.00,,OVC036,0.72,VWS V14.01,2013-03-12 14:42:00,
2013-03-12 10:47:00,54.9,48.9,29.79,NW,317,6.0,12.0,80,0.00,,OVC036,0.72,VWS V14.01,2013-03-12 14:47:00,
2013-03-12 10:52:00,54.8,48.4,29.79,WNW,296,6.0,13.0,79,0.01,,OVC036,0.73,VWS V14.01,2013-03-12 14:52:00,
2013-03-12 10:57:00,54.6,47.9,29.79,WNW,287,4.0,13.0,78,0.01,,OVC036,0.73,VWS V14.01,2013-03-12 14:57:00,
2013-03-12 11:00:00,54.6,48.2,29.79,WNW,300,5.0,13.0,79,0.01,,OVC085,0.73,VWS V14.01,2013-03-12 15:00:00,
2013-03-12 11:02:00,54.6,48.2,29.79,NW,319,5.0,8.0,79,0.01,,-RA,0.73,VWS V14.01,2013-03-12 15:02:00,
2013-03-12 11:07:00,54.6,47.5,29.80,WSW,238,4.0,11.0,77,0.01,,-RA,0.73,VWS V14.01,2013-03-12 15:07:00,
2013-03-12 11:12:00,54.5,47.8,29.80,WNW,288,4.0,11.0,78,0.01,,-RA,0.73,VWS V14.01,2013-03-12 15:12:00,
2013-03-12 11:17:00,54.4,47.0,29.80,WNW,295,6.0,20.0,76,0.01,,-RA,0.73,VWS V14.01,2013-03-12 15:17:00,
2013-03-12 11:22:00,54.0,46.3,29.80,NW,311,5.0,20.0,75,0.01,,-RA,0.73,VWS V14.01,2013-03-12 15:22:00,
2013-03-12 11:27:00,54.0,46.3,29.80,WSW,241,6.0,20.0,75,0.01,,-RA,0.73,VWS V14.01,2013-03-12 15:27:00,
2013-03-12 11:30:00,54.1,46.4,29.80,NW,318,5.0,20.0,75,0.01,,OVC085,0.73,VWS V14.01,2013-03-12 15:30:00,
2013-03-12 11:32:00,54.2,46.5,29.79,WNW,282,2.0,5.0,75,0.01,,-RA,0.73,VWS V14.01,2013-03-12 15:32:00,
2013-03-12 11:37:00,54.4,46.7,29.79,WNW,291,4.0,9.0,75,0.01,,-RA,0.73,VWS V14.01,2013-03-12 15:37:00,
2013-03-12 11:42:00,54.6,46.5,29.80,WNW,298,6.0,15.0,74,0.01,,-RA,0.73,VWS V14.01,2013-03-12 15:42:00,
2013-03-12 11:47:00,54.6,46.5,29.80,West,265,8.0,15.0,74,0.01,,-RA,0.73,VWS V14.01,2013-03-12 15:47:00,
2013-03-12 11:52:00,54.4,45.6,29.80,NNW,348,1.0,15.0,72,0.01,,-RA,0.73,VWS V14.01,2013-03-12 15:52:00,
2013-03-12 11:57:00,55.0,46.9,29.80,West,268,2.0,15.0,74,0.01,,-RA,0.73,VWS V14.01,2013-03-12 15:57:00,
2013-03-12 12:00:00,55.3,46.1,29.79,NW,317,4.0,15.0,71,0.01,,OVC085,0.73,VWS V14.01,2013-03-12 16:00:00,
2013-03-12 12:02:00,55.4,46.5,29.80,NNW,345,0.0,4.0,72,0.00,,OVC033,0.73,VWS V14.01,2013-03-12 16:02:00,
2013-03-12 12:07:00,55.9,46.3,29.80,WSW,252,6.0,10.0,70,0.00,,OVC033,0.73,VWS V14.01,2013-03-12 16:07:00,
2013-03-12 12:12:00,56.3,46.3,29.80,West,269,8.0,10.0,69,0.00,,OVC033,0.73,VWS V14.01,2013-03-12 16:12:00,
2013-03-12 12:17:00,56.1,45.7,29.81,WNW,294,4.0,11.0,68,0.00,,OVC033,0.73,VWS V14.01,2013-03-12 16:17:00,
2013-03-12 12:22:00,56.4,45.6,29.81,WNW,287,3.0,11.0,67,0.00,,OVC033,0.73,VWS V14.01,2013-03-12 16:22:00,
2013-03-12 12:27:00,57.3,46.8,29.80,North,349,5.0,11.0,68,0.00,,OVC033,0.73,VWS V14.01,2013-03-12 16:27:00,
2013-03-12 12:30:00,57.6,47.5,29.80,NNW,327,4.0,11.0,69,0.00,,OVC085,0.73,VWS V14.01,2013-03-12 16:30:00,
2013-03-12 12:32:00,57.8,45.3,29.81,NW,320,6.0,11.0,63,0.00,,OVC033,0.73,VWS V14.01,2013-03-12 16:32:00,
2013-03-12 12:37:00,57.4,45.8,29.81,WNW,302,4.0,15.0,65,0.00,,OVC033,0.73,VWS V14.01,2013-03-12 16:37:00,
2013-03-12 12:42:00,57.9,46.6,29.80,NW,307,5.0,15.0,66,0.00,,OVC033,0.73,VWS V14.01,2013-03-12 16:42:00,
2013-03-12 12:47:00,58.3,45.8,29.80,NW,317,5.0,15.0,63,0.00,,OVC033,0.73,VWS V14.01,2013-03-12 16:47:00,
2013-03-12 12:52:00,58.4,45.9,29.80,WSW,258,6.0,17.0,63,0.00,,OVC033,0.73,VWS V14.01,2013-03-12 16:52:00,
2013-03-12 12:57:00,58.4,44.6,29.80,West,265,10.0,17.0,60,0.00,,OVC033,0.73,VWS V14.01,2013-03-12 16:57:00,
2013-03-12 13:00:00,58.2,44.4,29.80,West,270,8.0,17.0,60,0.00,,OVC085,0.73,VWS V14.01,2013-03-12 17:00:00,
2013-03-12 13:02:00,58.6,45.6,29.80,WSW,240,8.0,14.0,62,0.00,,-RA,0.73,VWS V14.01,2013-03-12 17:02:00,
2013-03-12 13:07:00,59.0,46.0,29.80,WNW,286,7.0,16.0,62,0.00,,-RA,0.73,VWS V14.01,2013-03-12 17:07:00,
2013-03-12 13:12:00,59.1,45.7,29.80,NW,324,3.0,16.0,61,0.00,,-RA,0.73,VWS V14.01,2013-03-12 17:12:00,
2013-03-12 13:17:00,59.5,45.6,29.80,WSW,257,8.0,16.0,60,0.00,,-RA,0.73,VWS V14.01,2013-03-12 17:17:00,
2013-03-12 13:22:00,59.2,45.3,29.80,WNW,298,3.0,16.0,60,0.00,,-RA,0.73,VWS V14.01,2013-03-12 17:22:00,
2013-03-12 13:27:00,59.1,44.3,29.80,West,278,4.0,16.0,58,0.00,,-RA,0.73,VWS V14.01,2013-03-12 17:27:00,
2013-03-12 13:30:00,59.1,45.7,29.80,WSW,248,11.0,16.0,61,0.00,,OVC085,0.73,VWS V14.01,2013-03-12 17:30:00,
2013-03-12 13:32:00,59.2,44.5,29.80,NW,311,5.0,14.0,58,0.00,,-RA,0.73,VWS V14.01,2013-03-12 17:32:00,
2013-03-12 13:37:00,59.5,45.2,29.80,SW,219,5.0,14.0,59,0.00,,-RA,0.73,VWS V14.01,2013-03-12 17:37:00,
2013-03-12 13:43:00,59.4,44.6,29.80,WNW,284,13.0,14.0,58,0.00,,-RA,0.73,VWS V14.01,2013-03-12 17:43:00,
2013-03-12 13:48:00,59.4,45.1,29.80,West,280,5.0,14.0,59,0.00,,-RA,0.73,VWS V14.01,2013-03-12 17:48:00,
2013-03-12 13:53:00,59.6,43.9,29.79,WNW,291,7.0,14.0,56,0.00,,-RA,0.73,VWS V14.01,2013-03-12 17:53:00,
2013-03-12 13:58:00,59.7,44.9,29.79,West,271,7.0,14.0,58,0.00,,-RA,0.73,VWS V14.01,2013-03-12 17:58:00,
2013-03-12 14:00:00,59.8,44.1,29.79,West,265,7.0,14.0,56,0.00,,OVC085,0.73,VWS V14.01,2013-03-12 18:00:00,
2013-03-12 14:03:00,59.8,44.5,29.79,West,269,3.0,9.0,57,0.00,,OVC049,0.73,VWS V14.01,2013-03-12 18:03:00,
2013-03-12 14:08:00,60.4,45.1,29.79,NNW,343,3.0,12.0,57,0.00,,OVC049,0.73,VWS V14.01,2013-03-12 18:08:00,
2013-03-12 14:12:00,60.6,44.4,29.79,West,270,8.0,12.0,55,0.00,,OVC049,0.73,VWS V14.01,2013-03-12 18:12:00,
2013-03-12 14:17:00,60.7,44.0,29.79,WNW,297,3.0,14.0,54,0.00,,OVC049,0.73,VWS V14.01,2013-03-12 18:17:00,
2013-03-12 14:23:00,61.1,43.9,29.79,NW,325,4.0,14.0,53,0.00,,OVC049,0.73,VWS V14.01,2013-03-12 18:23:00,
2013-03-12 14:28:00,61.0,43.3,29.79,WSW,241,5.0,14.0,52,0.00,,OVC049,0.73,VWS V14.01,2013-03-12 18:28:00,
2013-03-12 14:30:00,61.0,44.2,29.79,WNW,294,4.0,14.0,54,0.00,,OVC085,0.73,VWS V14.01,2013-03-12 18:30:00,
2013-03-12 14:33:00,61.1,43.9,29.79,WNW,295,4.0,9.0,53,0.00,,OVC049,0.73,VWS V14.01,2013-03-12 18:33:00,
2013-03-12 14:38:00,61.4,44.1,29.79,NW,315,2.0,10.0,53,0.00,,OVC049,0.73,VWS V14.01,2013-03-12 18:38:00,
2013-03-12 14:43:00,61.3,42.0,29.79,NNW,328,4.0,10.0,49,0.00,,OVC049,0.73,VWS V14.01,2013-03-12 18:43:00,
2013-03-12 14:48:00,61.0,42.2,29.79,NW,321,5.0,10.0,50,0.00,,OVC049,0.73,VWS V14.01,2013-03-12 18:48:00,
2013-03-12 14:53:00,60.6,42.9,29.79,WNW,295,3.0,10.0,52,0.00,,OVC049,0.73,VWS V14.01,2013-03-12 18:53:00,
2013-03-12 14:58:00,60.7,43.5,29.79,NW,304,6.0,14.0,53,0.00,,OVC049,0.73,VWS V14.01,2013-03-12 18:58:00,
2013-03-12 15:00:00,60.8,43.6,29.79,WSW,256,7.0,14.0,53,0.00,,OVC085,0.73,VWS V14.01,2013-03-12 19:00:00,
2013-03-12 15:03:00,60.9,41.6,29.79,NW,308,3.0,10.0,49,0.00,,CLR,0.73,VWS V14.01,2013-03-12 19:03:00,
2013-03-12 15:08:00,60.9,41.6,29.79,NNW,337,6.0,10.0,49,0.00,,CLR,0.73,VWS V14.01,2013-03-12 19:08:00,
2013-03-12 15:13:00,60.8,43.1,29.79,NW,315,3.0,10.0,52,0.00,,CLR,0.73,VWS V14.01,2013-03-12 19:13:00,
2013-03-12 15:18:00,60.9,42.7,29.79,NW,323,4.0,10.0,51,0.00,,CLR,0.73,VWS V14.01,2013-03-12 19:18:00,
2013-03-12 15:23:00,60.7,40.9,29.79,NW,313,5.0,14.0,48,0.00,,CLR,0.73,VWS V14.01,2013-03-12 19:23:00,
2013-03-12 15:28:00,60.9,41.6,29.79,WSW,250,8.0,14.0,49,0.00,,CLR,0.73,VWS V14.01,2013-03-12 19:28:00,
2013-03-12 15:30:00,60.9,41.6,29.79,WNW,291,6.0,14.0,49,0.00,,OVC085,0.73,VWS V14.01,2013-03-12 19:30:00,
2013-03-12 15:33:00,61.0,41.7,29.79,West,266,6.0,12.0,49,0.00,,CLR,0.73,VWS V14.01,2013-03-12 19:33:00,
2013-03-12 15:38:00,61.2,41.4,29.79,SW,225,8.0,12.0,48,0.00,,CLR,0.73,VWS V14.01,2013-03-12 19:38:00,
2013-03-12 15:43:00,61.0,41.2,29.79,WNW,299,7.0,15.0,48,0.00,,CLR,0.73,VWS V14.01,2013-03-12 19:43:00,
2013-03-12 15:48:00,60.9,40.0,29.79,NW,323,2.0,15.0,46,0.00,,CLR,0.73,VWS V14.01,2013-03-12 19:48:00,
2013-03-12 15:53:00,60.9,41.6,29.80,WNW,293,5.0,15.0,49,0.00,,CLR,0.73,VWS V14.01,2013-03-12 19:53:00,
2013-03-12 15:58:00,60.8,40.5,29.80,WNW,295,5.0,15.0,47,0.00,,CLR,0.73,VWS V14.01,2013-03-12 19:58:00,
2013-03-12 16:00:00,60.8,41.0,29.80,WNW,299,3.0,15.0,48,0.00,,OVC085,0.73,VWS V14.01,2013-03-12 20:00:00,
2013-03-12 16:03:00,60.8,41.5,29.80,NW,315,2.0,9.0,49,0.00,,CLR,0.73,VWS V14.01,2013-03-12 20:03:00,
2013-03-12 16:08:00,61.1,41.3,29.80,WNW,298,4.0,9.0,48,0.00,,CLR,0.73,VWS V14.01,2013-03-12 20:08:00,
2013-03-12 16:13:00,61.0,41.2,29.80,NW,311,4.0,9.0,48,0.00,,CLR,0.73,VWS V14.01,2013-03-12 20:13:00,
2013-03-12 16:18:00,61.1,40.7,29.80,West,269,4.0,9.0,47,0.00,,CLR,0.73,VWS V14.01,2013-03-12 20:18:00,
2013-03-12 16:23:00,61.1,39.6,29.80,WNW,292,4.0,12.0,45,0.00,,CLR,0.73,VWS V14.01,2013-03-12 20:23:00,
2013-03-12 16:28:00,60.8,40.5,29.80,WNW,292,4.0,12.0,47,0.00,,CLR,0.73,VWS V14.01,2013-03-12 20:28:00,
2013-03-12 16:30:00,60.8,41.0,29.81,WNW,288,3.0,12.0,48,0.00,,OVC085,0.73,VWS V14.01,2013-03-12 20:30:00,
2013-03-12 16:33:00,61.0,40.7,29.81,WNW,288,4.0,9.0,47,0.00,,CLR,0.73,VWS V14.01,2013-03-12 20:33:00,
2013-03-12 16:38:00,61.5,40.0,29.81,West,262,10.0,15.0,45,0.00,,CLR,0.73,VWS V14.01,2013-03-12 20:38:00,
2013-03-12 16:43:00,60.9,40.5,29.80,WNW,289,7.0,17.0,47,0.00,,CLR,0.73,VWS V14.01,2013-03-12 20:43:00,
2013-03-12 16:48:00,60.8,39.3,29.81,WNW,290,7.0,17.0,45,0.00,,CLR,0.73,VWS V14.01,2013-03-12 20:48:00,
2013-03-12 16:53:00,60.7,39.8,29.80,WNW,300,4.0,17.0,46,0.00,,CLR,0.73,VWS V14.01,2013-03-12 20:53:00,
2013-03-12 16:58:00,60.6,39.7,29.81,NW,317,3.0,17.0,46,0.00,,CLR,0.73,VWS V14.01,2013-03-12 20:58:00,
2013-03-12 17:00:00,60.7,39.8,29.81,NW,317,4.0,17.0,46,0.00,,OVC085,0.73,VWS V14.01,2013-03-12 21:00:00,
2013-03-12 17:03:00,60.5,39.6,29.80,West,280,5.0,14.0,46,0.00,,SCT049,0.73,VWS V14.01,2013-03-12 21:03:00,
2013-03-12 17:08:00,60.7,39.3,29.81,WNW,303,3.0,14.0,45,0.00,,SCT049,0.73,VWS V14.01,2013-03-12 21:08:00,
2013-03-12 17:13:00,60.4,40.1,29.81,WNW,296,3.0,14.0,47,0.00,,SCT049,0.73,VWS V14.01,2013-03-12 21:13:00,
2013-03-12 17:18:00,60.4,38.4,29.81,WNW,300,4.0,14.0,44,0.00,,SCT049,0.73,VWS V14.01,2013-03-12 21:18:00,
2013-03-12 17:23:00,60.4,37.8,29.81,SW,233,8.0,14.0,43,0.00,,SCT049,0.73,VWS V14.01,2013-03-12 21:23:00,
2013-03-12 17:28:00,60.0,38.6,29.82,West,266,2.0,14.0,45,0.00,,SCT049,0.73,VWS V14.01,2013-03-12 21:28:00,
2013-03-12 17:30:00,60.1,38.7,29.82,NW,306,5.0,14.0,45,0.00,,OVC085,0.73,VWS V14.01,2013-03-12 21:30:00,
2013-03-12 17:33:00,60.1,38.1,29.82,West,280,5.0,7.0,44,0.00,,SCT049,0.73,VWS V14.01,2013-03-12 21:33:00,
2013-03-12 17:38:00,60.0,38.6,29.81,WNW,297,2.0,8.0,45,0.00,,SCT049,0.73,VWS V14.01,2013-03-12 21:38:00,
2013-03-12 17:43:00,59.8,37.9,29.82,WNW,294,4.0,8.0,44,0.00,,SCT049,0.73,VWS V14.01,2013-03-12 21:43:00,
2013-03-12 17:48:00,59.7,38.3,29.82,WNW,295,4.0,8.0,45,0.00,,SCT049,0.73,VWS V14.01,2013-03-12 21:48:00,
2013-03-12 17:53:00,59.6,37.1,29.82,WNW,294,3.0,8.0,43,0.00,,SCT049,0.73,VWS V14.01,2013-03-12 21:53:00,
2013-03-12 17:58:00,59.3,36.8,29.82,WNW,297,5.0,8.0,43,0.00,,SCT049,0.73,VWS V14.01,2013-03-12 21:58:00,
2013-03-12 18:00:00,59.3,37.4,29.82,NW,306,4.0,8.0,44,0.00,,OVC085,0.73,VWS V14.01,2013-03-12 22:00:00,
2013-03-12 18:03:00,59.0,37.1,29.82,WNW,282,3.0,12.0,44,0.00,,CLR,0.73,VWS V14.01,2013-03-12 22:03:00,
2013-03-12 18:08:00,59.1,37.8,29.82,NW,317,2.0,12.0,45,0.00,,CLR,0.73,VWS V14.01,2013-03-12 22:08:00,
2013-03-12 18:13:00,58.9,37.6,29.82,NW,312,4.0,12.0,45,0.00,,CLR,0.73,VWS V14.01,2013-03-12 22:13:00,
2013-03-12 18:18:00,58.8,38.1,29.82,NW,309,2.0,12.0,46,0.00,,CLR,0.73,VWS V14.01,2013-03-12 22:18:00,
2013-03-12 18:23:00,58.7,36.9,29.83,WNW,290,3.0,12.0,44,0.00,,CLR,0.73,VWS V14.01,2013-03-12 22:23:00,
2013-03-12 18:28:00,58.6,37.3,29.83,West,279,4.0,12.0,45,0.00,,CLR,0.73,VWS V14.01,2013-03-12 22:28:00,
2013-03-12 18:30:00,58.6,37.3,29.83,WNW,290,4.0,12.0,45,0.00,,OVC085,0.73,VWS V14.01,2013-03-12 22:30:00,
2013-03-12 18:33:00,58.5,37.2,29.83,NW,309,3.0,8.0,45,0.00,,CLR,0.73,VWS V14.01,2013-03-12 22:33:00,
2013-03-12 18:38:00,58.3,37.6,29.83,NW,308,2.0,8.0,46,0.00,,CLR,0.73,VWS V14.01,2013-03-12 22:38:00,
2013-03-12 18:43:00,58.3,37.6,29.84,West,273,5.0,8.0,46,0.00,,CLR,0.73,VWS V14.01,2013-03-12 22:43:00,
2013-03-12 18:48:00,58.2,37.0,29.84,WNW,294,1.0,8.0,45,0.00,,CLR,0.73,VWS V14.01,2013-03-12 22:48:00,
2013-03-12 18:53:00,57.9,37.3,29.84,WNW,289,2.0,8.0,46,0.00,,CLR,0.73,VWS V14.01,2013-03-12 22:53:00,
2013-03-12 18:58:00,57.3,36.7,29.84,WNW,291,3.0,8.0,46,0.00,,CLR,0.73,VWS V14.01,2013-03-12 22:58:00,
2013-03-12 19:00:00,57.2,37.2,29.84,WNW,291,2.0,8.0,47,0.00,,OVC085,0.73,VWS V14.01,2013-03-12 23:00:00,
2013-03-12 19:03:00,56.8,36.8,29.85,WNW,300,3.0,4.0,47,0.00,,CLR,0.73,VWS V14.01,2013-03-12 23:03:00,
2013-03-12 19:08:00,56.2,36.8,29.85,WNW,296,0.0,6.0,48,0.00,,CLR,0.73,VWS V14.01,2013-03-12 23:08:00,
2013-03-12 19:13:00,55.6,36.8,29.85,WNW,295,0.0,6.0,49,0.00,,CLR,0.73,VWS V14.01,2013-03-12 23:13:00,
2013-03-12 19:18:00,54.9,36.6,29.86,NNW,333,2.0,6.0,50,0.00,,CLR,0.73,VWS V14.01,2013-03-12 23:18:00,
2013-03-12 19:23:00,54.2,36.0,29.86,NW,309,3.0,6.0,50,0.00,,CLR,0.73,VWS V14.01,2013-03-12 23:23:00,
2013-03-12 19:28:00,53.8,35.6,29.86,WNW,296,2.0,6.0,50,0.00,,CLR,0.73,VWS V14.01,2013-03-12 23:28:00,
2013-03-12 19:30:00,53.8,35.1,29.86,WNW,296,2.0,6.0,49,0.00,,OVC085,0.73,VWS V14.01,2013-03-12 23:30:00,
2013-03-12 19:33:00,53.6,34.9,29.87,WNW,292,2.0,3.0,49,0.00,,CLR,0.73,VWS V14.01,2013-03-12 23:33:00,
2013-03-12 19:38:00,53.3,35.7,29.87,WNW,300,1.0,4.0,51,0.00,,CLR,0.73,VWS V14.01,2013-03-12 23:38:00,
2013-03-12 19:43:00,52.9,34.8,29.88,NW,318,2.0,4.0,50,0.00,,CLR,0.73,VWS V14.01,2013-03-12 23:43:00,
2013-03-12 19:48:00,52.6,35.0,29.88,NW,307,2.0,4.0,51,0.00,,CLR,0.73,VWS V14.01,2013-03-12 23:48:00,
2013-03-12 19:53:00,52.2,34.6,29.88,NW,304,3.0,4.0,51,0.00,,CLR,0.73,VWS V14.01,2013-03-12 23:53:00,
2013-03-12 19:58:00,51.9,34.8,29.88,WNW,300,1.0,4.0,52,0.00,,CLR,0.73,VWS V14.01,2013-03-12 23:58:00,
2013-03-12 20:00:00,51.9,34.8,29.88,WNW,300,0.0,4.0,52,0.00,,OVC085,0.73,VWS V14.01,2013-03-13 00:00:00,
2013-03-12 20:03:00,51.6,34.6,29.88,WNW,300,0.0,3.0,52,0.00,,CLR,0.73,VWS V14.01,2013-03-13 00:03:00,
2013-03-12 20:09:00,51.3,34.8,29.89,WNW,296,1.0,4.0,53,0.00,,CLR,0.73,VWS V14.01,2013-03-13 00:09:00,
2013-03-12 20:14:00,51.0,34.5,29.89,WNW,300,3.0,4.0,53,0.00,,CLR,0.73,VWS V14.01,2013-03-13 00:14:00,
2013-03-12 20:18:00,50.6,34.6,29.89,WNW,300,2.0,6.0,54,0.00,,CLR,0.73,VWS V14.01,2013-03-13 00:18:00,
2013-03-12 20:23:00,50.3,34.3,29.90,WNW,300,4.0,6.0,54,0.00,,CLR,0.73,VWS V14.01,2013-03-13 00:23:00,
2013-03-12 20:28:00,50.1,34.1,29.90,NW,304,1.0,6.0,54,0.00,,CLR,0.73,VWS V14.01,2013-03-13 00:28:00,
2013-03-12 20:30:00,50.0,34.0,29.90,NW,304,2.0,6.0,54,0.00,,OVC085,0.73,VWS V14.01,2013-03-13 00:30:00,
2013-03-12 20:34:00,49.9,33.9,29.90,NW,304,2.0,3.0,54,0.00,,CLR,0.73,VWS V14.01,2013-03-13 00:34:00,
2013-03-12 20:39:00,49.8,33.8,29.90,WNW,288,2.0,7.0,54,0.00,,CLR,0.73,VWS V14.01,2013-03-13 00:39:00,
2013-03-12 20:43:00,49.8,33.8,29.90,WNW,297,3.0,7.0,54,0.00,,CLR,0.73,VWS V14.01,2013-03-13 00:43:00,
2013-03-12 20:48:00,49.6,34.1,29.91,WNW,286,2.0,7.0,55,0.00,,CLR,0.73,VWS V14.01,2013-03-13 00:48:00,
2013-03-12 20:53:00,49.5,34.5,29.91,West,278,4.0,9.0,56,0.00,,CLR,0.73,VWS V14.01,2013-03-13 00:53:00,
2013-03-12 20:59:00,49.4,33.5,29.91,WNW,291,5.0,9.0,54,0.00,,CLR,0.73,VWS V14.01,2013-03-13 00:59:00,
2013-03-12 21:00:00,49.4,33.9,29.91,West,271,5.0,9.0,55,0.00,,OVC085,0.73,VWS V14.01,2013-03-13 01:00:00,
2013-03-12 21:04:00,49.3,33.8,29.92,WNW,297,1.0,9.0,55,0.00,,CLR,0.73,VWS V14.01,2013-03-13 01:04:00,
2013-03-12 21:09:00,49.2,34.2,29.92,WNW,293,2.0,9.0,56,0.00,,CLR,0.73,VWS V14.01,2013-03-13 01:09:00,
2013-03-12 21:14:00,49.1,34.1,29.92,WNW,282,4.0,10.0,56,0.00,,CLR,0.73,VWS V14.01,2013-03-13 01:14:00,
2013-03-12 21:19:00,48.8,34.3,29.92,WNW,294,0.0,10.0,57,0.00,,CLR,0.73,VWS V14.01,2013-03-13 01:19:00,
2013-03-12 21:24:00,48.4,33.9,29.92,NW,307,2.0,10.0,57,0.00,,CLR,0.73,VWS V14.01,2013-03-13 01:24:00,
2013-03-12 21:29:00,48.4,34.3,29.92,WNW,290,3.0,10.0,58,0.00,,CLR,0.73,VWS V14.01,2013-03-13 01:29:00,
2013-03-12 21:30:00,48.4,34.3,29.92,WNW,298,1.0,10.0,58,0.00,,OVC085,0.73,VWS V14.01,2013-03-13 01:30:00,
2013-03-12 21:34:00,48.2,34.1,29.92,NW,308,3.0,8.0,58,0.00,,CLR,0.73,VWS V14.01,2013-03-13 01:34:00,
2013-03-12 21:39:00,48.1,34.9,29.93,West,267,2.0,8.0,60,0.00,,CLR,0.73,VWS V14.01,2013-03-13 01:39:00,
2013-03-12 21:44:00,47.7,34.1,29.93,WNW,288,3.0,8.0,59,0.00,,CLR,0.73,VWS V14.01,2013-03-13 01:44:00,
2013-03-12 21:49:00,47.6,34.4,29.93,WNW,294,0.0,8.0,60,0.00,,CLR,0.73,VWS V14.01,2013-03-13 01:49:00,
2013-03-12 21:54:00,47.4,33.8,29.93,NNW,342,1.0,8.0,59,0.00,,CLR,0.73,VWS V14.01,2013-03-13 01:54:00,
2013-03-12 21:59:00,47.3,34.1,29.93,West,265,4.0,8.0,60,0.00,,CLR,0.73,VWS V14.01,2013-03-13 01:59:00,
2013-03-12 22:00:00,47.2,34.0,29.93,West,271,6.0,8.0,60,0.00,,OVC085,0.73,VWS V14.01,2013-03-13 02:00:00,
2013-03-12 22:04:00,47.2,34.0,29.93,WSW,258,5.0,7.0,60,0.00,,CLR,0.73,VWS V14.01,2013-03-13 02:04:00,
2013-03-12 22:09:00,47.0,33.8,29.93,West,275,0.0,7.0,60,0.00,,CLR,0.73,VWS V14.01,2013-03-13 02:09:00,
2013-03-12 22:14:00,46.8,34.1,29.93,South,175,0.0,7.0,61,0.00,,CLR,0.73,VWS V14.01,2013-03-13 02:14:00,
2013-03-12 22:19:00,46.6,35.1,29.94,South,172,0.0,7.0,64,0.00,,CLR,0.73,VWS V14.01,2013-03-13 02:19:00,
2013-03-12 22:24:00,46.2,34.7,29.94,South,184,0.0,7.0,64,0.00,,CLR,0.73,VWS V14.01,2013-03-13 02:24:00,
2013-03-12 22:29:00,45.9,34.8,29.94,WNW,291,0.0,7.0,65,0.00,,CLR,0.73,VWS V14.01,2013-03-13 02:29:00,
2013-03-12 22:30:00,45.9,34.8,29.94,WNW,291,0.0,7.0,65,0.00,,OVC085,0.73,VWS V14.01,2013-03-13 02:30:00,
2013-03-12 22:34:00,45.6,34.5,29.95,West,275,1.0,2.0,65,0.00,,CLR,0.73,VWS V14.01,2013-03-13 02:34:00,
2013-03-12 22:39:00,45.2,33.8,29.95,WNW,288,4.0,4.0,64,0.00,,CLR,0.73,VWS V14.01,2013-03-13 02:39:00,
2013-03-12 22:44:00,44.9,34.2,29.95,WNW,283,3.0,4.0,66,0.00,,CLR,0.73,VWS V14.01,2013-03-13 02:44:00,
2013-03-12 22:49:00,44.8,33.8,29.95,WSW,247,2.0,4.0,65,0.00,,CLR,0.73,VWS V14.01,2013-03-13 02:49:00,
2013-03-12 22:54:00,44.9,34.2,29.95,WNW,300,0.0,4.0,66,0.00,,CLR,0.73,VWS V14.01,2013-03-13 02:54:00,
2013-03-12 22:59:00,44.6,33.6,29.95,NW,313,0.0,5.0,65,0.00,,CLR,0.73,VWS V14.01,2013-03-13 02:59:00,
2013-03-12 23:00:00,44.6,33.6,29.95,NW,313,0.0,5.0,65,0.00,,OVC085,0.73,VWS V14.01,2013-03-13 03:00:00,
2013-03-12 23:04:00,44.2,34.0,29.95,NW,317,0.0,1.0,67,0.00,,CLR,0.73,VWS V14.01,2013-03-13 03:04:00,
2013-03-12 23:09:00,43.6,34.1,29.95,NNW,340,0.0,2.0,69,0.00,,CLR,0.73,VWS V14.01,2013-03-13 03:09:00,
2013-03-12 23:14:00,43.2,33.7,29.96,NNW,340,0.0,2.0,69,0.00,,CLR,0.73,VWS V14.01,2013-03-13 03:14:00,
2013-03-12 23:19:00,42.8,33.7,29.96,NNW,346,0.0,2.0,70,0.00,,CLR,0.73,VWS V14.01,2013-03-13 03:19:00,
2013-03-12 23:24:00,42.5,33.8,29.95,NNW,336,0.0,2.0,71,0.00,,CLR,0.73,VWS V14.01,2013-03-13 03:24:00,
2013-03-12 23:29:00,42.2,33.8,29.95,NNW,348,0.0,2.0,72,0.00,,CLR,0.73,VWS V14.01,2013-03-13 03:29:00,
2013-03-12 23:30:00,42.2,33.8,29.95,NNW,348,0.0,2.0,72,0.00,,OVC085,0.73,VWS V14.01,2013-03-13 03:30:00,
2013-03-12 23:34:00,42.0,33.3,29.95,North,355,0.0,1.0,71,0.00,,CLR,0.73,VWS V14.01,2013-03-13 03:34:00,
2013-03-12 23:39:00,42.0,32.9,29.96,North,355,0.0,1.0,70,0.00,,CLR,0.73,VWS V14.01,2013-03-13 03:39:00,
2013-03-12 23:44:00,42.0,32.9,29.95,North,355,0.0,1.0,70,0.00,,CLR,0.73,VWS V14.01,2013-03-13 03:44:00,
2013-03-12 23:49:00,42.0,32.9,29.95,North,355,0.0,1.0,70,0.00,,CLR,0.73,VWS V14.01,2013-03-13 03:49:00,
2013-03-12 23:54:00,41.7,33.3,29.95,North,355,0.0,1.0,72,0.00,,CLR,0.73,VWS V14.01,2013-03-13 03:54:00,
2013-03-12 23:59:00,41.2,33.2,29.96,NW,324,0.0,1.0,73,0.00,,CLR,0.73,VWS V14.01,2013-03-13 03:59:00,